Probability
8 9 11 14 15 17 21 24 21 19 18 15 10 7 6 5 6 9 13 13 9 7 7 6 6 6 6 6 6 6 4 3 3 3 3 4 6 6 7 8 8 7 6
14 14 14 14 15 17 21 25 26 23 20 16 13 10 9 7 7 10 14 14 11 8 8 8 7 7 7 7 8 7 4 3 3 4 5 6 7 6 6 7 7 7 7
17 17 16 14 14 17 23 28 32 29 21 17 15 14 12 11 10 13 15 15 12 10 10 10 8 7 7 8 9 8 6 5 5 7 8 9 9 7 5 6 7 7 7
14 16 17 17 16 19 24 31 35 31 24 19 16 16 16 16 16 18 18 15 14 13 12 9 8 7 7 8 8 8 8 7 8 10 12 11 10 9 7 6 6 7 8
11 16 20 21 19 19 23 29 34 32 27 22 19 18 18 19 20 21 20 18 17 16 13 11 10 8 7 6 8 9 11 11 11 11 12 12 11 11 8 5 5 6 8
11 16 22 23 20 19 21 26 31 32 29 25 22 21 20 20 21 22 21 20 19 20 20 20 19 15 10 9 10 11 13 14 14 12 10 10 12 12 9 6 4 5 8
12 16 22 24 22 20 20 24 29 30 28 25 24 22 21 21 22 23 23 21 21 23 26 28 27 21 16 14 13 13 13 14 16 14 12 12 13 13 12 10 7 7 10
14 16 20 23 22 20 19 22 27 29 27 25 24 23 22 20 20 21 21 21 22 23 26 28 27 23 18 15 14 14 12 13 15 16 16 16 14 14 14 13 11 11 11
13 14 15 17 18 19 19 21 27 30 28 26 25 23 21 18 17 17 19 21 23 23 25 26 25 23 19 15 13 12 12 13 14 15 17 17 15 16 16 14 14 12 10
12 11 10 12 16 19 20 22 27 31 29 26 24 22 20 19 18 18 20 22 24 24 24 24 22 21 20 17 12 11 12 13 13 14 15 15 15 16 15 15 15 14 11
15 12 10 12 17 21 22 24 27 29 28 26 23 22 21 20 18 18 18 19 20 22 22 21 19 19 19 17 14 12 12 13 13 12 13 13 13 13 13 14 15 15 15
21 19 18 20 22 23 24 25 24 25 25 25 23 23 21 17 14 14 14 15 18 20 19 17 16 17 17 17 15 13 13 15 15 14 12 12 10 10 11 11 11 14 16
31 31 30 28 27 28 27 25 23 21 21 22 23 22 19 14 12 11 12 14 16 17 16 14 14 17 19 19 17 14 14 18 20 19 15 12 10 10 11 10 11 13 14
39 39 36 30 29 32 31 27 23 20 19 21 22 21 18 14 12 12 12 12 12 12 12 13 15 18 19 19 19 16 16 20 23 21 16 12 10 12 12 12 13 14 15
41 42 38 32 31 35 34 31 26 22 21 23 23 23 21 18 15 14 14 13 10 8 10 13 15 16 15 15 16 16 17 19 20 19 15 11 11 12 13 13 13 14 16
42 44 41 37 35 36 35 34 31 27 25 25 26 27 26 24 20 17 16 16 13 12 13 15 15 15 12 9 9 12 14 15 14 14 12 10 10 12 13 12 10 10 12
43 43 42 40 38 35 34 34 33 30 29 29 29 30 30 29 25 21 19 20 20 20 21 21 18 15 11 6 4 6 9 10 11 11 11 10 10 12 15 13 10 9 9
39 39 38 37 36 33 33 33 31 30 31 31 31 31 31 30 28 25 23 24 24 25 26 27 23 17 11 5 2 2 5 8 10 10 11 11 12 12 14 15 14 13 12
33 33 31 30 32 33 35 33 29 28 30 32 32 30 29 28 26 25 25 24 24 23 25 26 25 20 14 7 2 1 4 7 8 10 11 12 12 11 11 15 17 16 15
28 28 26 27 31 35 37 35 30 27 28 30 31 29 27 26 24 24 24 23 21 20 19 20 22 21 18 11 4 1 3 6 8 10 11 11 10 8 7 12 16 16 15
27 29 30 31 32 35 38 37 33 30 29 29 28 26 24 24 23 24 24 22 19 16 15 15 16 17 17 11 4 2 3 5 8 9 10 10 8 4 3 6 11 13 12
34 35 37 36 34 35 38 39 37 34 32 30 27 23 20 18 17 20 22 20 16 12 11 11 11 11 11 8 4 2 2 4 6 8 9 9 5 1 0 2 5 7 6
40 40 40 38 35 35 37 39 39 37 32 28 24 19 15 13 13 15 17 15 13 10 8 8 8 8 7 6 4 3 1 1 3 5 6 5 2 0 0 1 2 3 4
37 38 38 37 36 35 35 37 38 36 29 23 19 15 13 12 12 14 13 12 11 9 8 7 7 7 7 6 5 5 3 1 2 4 5 3 2 1 2 4 5 6 7
32 34 34 34 34 33 32 33 33 31 26 20 15 12 11 10 11 11 11 10 9 8 8 7 7 7 6 5 5 5 4 3 3 4 4 4 3 3 4 7 9 9 9
30 30 30 31 32 33 31 29 27 26 25 19 13 11 10 9 9 9 9 8 8 7 6 6 6 6 5 4 4 4 5 5 4 4 4 4 5 5 6 8 10 11 10
Wind_Speed
9 8 8 8 8 8 6 5 4 3 2 1 1 1 2 2 2 3 4 3 3 3 2 2 2 2 2 2 1 1 0 0 0 1 0 1 2 2 2 2 2 3 4
7 8 8 7 7 7 6 5 4 3 2 1 1 1 2 1 2 3 3 3 2 2 2 2 2 2 2 1 1 1 0 1 1 1 0 0 1 0 2 3 2 3 3
8 8 8 8 7 7 6 5 4 4 2 2 1 1 1 1 2 2 2 2 2 2 3 3 2 2 1 1 0 1 1 1 1 0 0 0 0 0 0 1 2 2 2
8 8 8 8 8 8 7 6 5 4 3 2 1 1 1 2 2 2 2 2 1 2 2 3 2 2 2 1 1 1 1 1 1 1 0 0 1 1 0 1 1 1 2
8 8 9 8 7 8 8 7 5 4 3 2 1 1 1 1 1 2 2 1 1 2 2 2 2 2 1 1 2 2 2 2 2 1 1 1 1 1 2 1 1 0 1
9 9 8 9 7 7 7 8 7 5 3 2 2 2 2 2 1 1 1 1 1 1 2 2 2 1 1 1 1 1 1 1 2 2 2 1 1 1 0 1 1 1 1
10 9 9 9 8 7 7 7 7 5 4 3 2 2 1 1 1 0 0 0 1 1 1 2 1 1 1 1 1 0 1 1 1 2 2 2 1 1 1 0 0 0 1
9 9 9 9 8 8 7 7 7 5 4 3 3 2 2 1 0 0 0 1 1 1 1 2 1 2 2 1 1 1 0 1 1 2 2 2 1 1 1 0 0 1 1
9 9 8 9 8 7 7 7 7 5 4 3 3 2 1 0 1 1 1 1 1 1 1 1 1 1 2 2 1 1 1 1 1 1 1 1 1 1 1 1 1 0 1
9 8 7 7 8 7 7 6 6 5 5 4 3 3 2 1 1 1 2 2 3 2 2 1 1 1 1 1 1 1 1 1 1 1 1 1 1 1 1 1 1 1 0
8 7 7 7 8 7 7 6 5 4 4 4 3 2 2 2 1 1 1 2 2 1 2 1 1 1 1 1 1 1 0 0 1 1 0 1 1 2 2 1 1 1 1
8 8 8 7 7 6 6 5 5 4 3 3 3 2 2 2 1 1 1 2 1 1 1 1 1 1 1 1 1 2 1 0 0 1 1 1 1 1 2 2 2 1 0
8 8 8 7 6 5 5 5 4 4 4 4 3 3 2 2 2 1 1 1 1 1 1 1 1 1 1 1 1 1 1 0 0 0 0 1 1 1 1 2 2 2 2
7 7 7 7 6 5 4 3 3 3 3 4 3 3 2 1 1 1 1 1 1 0 0 1 1 1 1 1 1 1 1 1 1 1 1 1 0 0 1 1 2 2 2
7 7 7 6 6 5 4 3 3 3 3 3 3 3 2 1 1 1 1 1 0 1 1 1 1 1 1 1 1 1 1 1 1 1 1 0 1 2 1 1 2 2 2
6 6 6 6 6 5 4 4 3 3 3 2 2 2 2 1 1 1 1 1 1 1 1 1 1 2 2 2 2 2 1 1 1 1 1 1 1 1 2 1 1 2 2
6 5 5 5 5 5 4 4 4 3 3 2 2 2 1 1 1 1 0 1 1 1 2 2 1 0 1 2 3 3 2 2 2 2 1 2 1 1 0 2 4 3 4
5 5 4 4 5 5 5 4 4 3 3 2 2 2 2 1 1 1 1 1 1 1 2 2 1 1 0 1 1 2 2 2 2 2 2 2 1 2 2 3 3 3 3
4 4 4 4 4 5 4 4 3 3 3 2 2 1 1 1 1 1 1 1 2 2 2 2 2 2 1 1 1 1 2 2 3 3 2 2 1 2 2 2 3 3 3
4 4 4 4 4 3 4 3 3 2 2 2 2 1 1 1 1 1 1 1 2 2 2 2 2 2 2 2 2 2 2 2 3 2 2 1 1 1 1 2 3 4 4
4 4 4 4 3 3 3 3 3 2 1 1 1 1 1 1 1 1 1 1 2 2 2 2 2 3 3 3 3 3 2 3 3 3 2 1 2 2 3 3 4 5 5
4 4 4 3 3 3 2 2 2 1 1 1 0 0 1 1 1 1 1 1 2 3 3 3 3 3 3 3 3 4 4 4 3 3 2 1 1 3 5 5 6 7 5
3 3 3 3 3 3 2 2 2 2 1 0 0 1 1 1 1 2 2 2 2 3 3 3 2 2 1 1 3 4 4 5 4 3 4 4 4 5 5 7 8 5 4
3 3 3 3 3 2 2 2 2 1 1 0 0 1 1 2 2 2 2 2 2 2 3 3 2 2 1 0 0 1 2 3 3 3 4 4 6 6 6 5 5 4 4
3 3 3 2 2 2 2 2 2 1 0 0 1 1 1 1 2 2 1 1 1 1 2 2 3 2 2 1 2 2 2 2 2 3 3 3 3 3 3 3 3 3 3
3 3 3 2 2 2 2 2 2 1 0 0 0 1 1 1 1 1 1 1 1 1 1 1 3 3 2 1 2 3 3 3 3 2 3 3 3 3 3 3 3 3 3
Wind_Direction
147 143 140 132 124 118 112 104 103 98 87 75 81 82 81 77 93 97 89 75 53 48 38 62 77 68 78 94 117 100 248 305 85 39 21 219 176 154 152 165 156 157 163
141 141 140 134 128 123 123 122 118 115 107 93 83 86 87 78 88 76 87 79 61 48 65 67 71 77 77 67 76 47 292 258 126 134 328 83 118 135 167 154 162 160 158
156 155 152 144 138 132 130 124 116 116 122 123 114 97 101 85 75 90 89 68 54 60 40 41 38 63 84 77 32 351 359 331 318 179 153 157 143 271 99 145 138 142 145
161 161 151 145 139 134 126 115 121 120 113 107 91 122 118 94 82 93 99 107 96 85 74 66 41 22 18 34 323 50 326 297 284 290 263 210 171 149 130 311 98 136 128
155 151 152 146 144 140 137 132 129 122 115 115 89 73 76 96 91 98 113 119 107 98 85 76 58 41 15 6 7 26 355 337 324 314 324 298 269 245 173 182 159 271 153
143 139 143 143 144 142 141 139 134 131 128 120 92 70 59 63 69 79 106 117 110 108 101 91 70 58 359 17 2 350 346 334 339 334 330 310 317 327 46 164 191 190 220
142 142 142 142 143 140 139 136 135 139 146 142 127 112 89 98 145 106 87 44 94 67 50 66 62 41 8 20 345 332 327 331 330 331 325 343 354 350 1 75 254 240 235
140 142 144 143 142 140 135 132 135 138 143 145 143 144 168 209 222 315 13 11 36 66 57 62 51 28 12 8 358 344 287 337 318 318 334 335 347 345 4 53 12 294 286
142 145 148 145 144 142 135 133 133 137 144 145 139 146 153 8 32 26 13 47 42 76 72 62 53 36 17 4 4 351 350 1 318 319 337 342 328 343 347 13 42 353 285
145 145 144 144 142 140 134 134 133 138 144 142 154 152 134 120 94 49 31 38 32 29 42 50 45 28 14 6 351 326 7 358 331 319 340 336 332 348 348 5 343 329 268
148 146 143 140 139 138 135 132 131 136 143 143 145 127 137 143 124 93 72 65 47 26 20 16 17 12 354 338 328 322 12 349 322 308 344 335 343 336 332 335 349 7 11
148 144 140 136 136 136 134 134 139 142 141 133 134 130 127 115 95 82 80 81 69 23 16 0 347 331 335 330 319 315 2 10 347 335 358 334 327 349 346 340 342 348 4
142 140 136 138 133 128 127 133 143 142 139 130 126 116 112 106 98 84 68 63 57 12 7 329 319 318 314 305 320 318 331 347 329 309 285 302 338 351 330 323 331 321 316
134 139 138 137 128 124 122 129 146 138 134 129 130 122 112 103 109 98 79 58 46 351 317 311 306 303 310 344 0 327 309 325 339 317 297 288 304 297 295 285 301 309 315
146 145 145 138 136 134 134 139 135 124 120 124 133 131 127 126 123 132 153 160 163 278 299 305 299 278 272 313 347 306 264 326 323 311 293 261 144 102 39 326 322 321 322
148 144 146 141 143 148 148 144 142 132 126 133 143 132 138 147 155 173 180 183 203 258 267 264 285 294 302 11 11 352 309 270 266 276 287 226 165 164 186 235 295 303 286
139 140 149 154 150 151 150 157 154 150 152 153 151 148 148 160 187 240 232 231 232 238 250 253 261 301 341 15 19 356 326 296 276 271 280 280 298 24 268 254 246 256 264
141 141 148 150 156 158 160 157 156 151 152 162 170 178 183 188 194 250 270 268 267 262 263 258 242 200 281 0 7 332 287 283 270 257 244 244 286 303 317 285 272 257 252
135 142 150 145 141 148 153 150 149 152 159 168 174 173 178 183 211 264 279 281 275 262 254 260 246 215 198 248 309 303 273 274 276 259 259 244 247 301 319 290 279 279 278
132 142 145 137 128 139 140 144 150 152 164 177 193 185 189 204 222 248 278 283 279 279 270 259 246 230 212 223 239 257 257 265 274 262 250 233 214 268 280 271 274 275 279
117 120 117 110 107 104 127 147 148 162 171 171 189 182 185 216 222 223 242 262 278 275 267 261 250 237 226 218 227 227 246 268 269 264 252 233 201 241 259 266 266 269 279
103 102 98 96 94 98 113 125 130 124 104 120 152 172 218 257 250 230 244 254 270 272 260 254 251 250 231 211 217 216 229 261 272 274 277 267 263 262 262 259 267 277 277
84 87 88 94 94 86 76 98 92 86 88 103 166 242 246 254 247 241 240 246 254 269 273 265 255 259 245 194 208 221 236 249 260 280 300 297 277 267 255 246 254 261 257
87 87 94 91 95 94 83 79 88 96 109 113 259 266 247 247 251 246 237 251 266 277 284 289 286 274 250 261 282 259 251 248 257 281 295 283 266 268 266 256 247 240 245
80 87 90 86 84 92 93 89 82 80 92 199 258 272 273 279 262 260 264 260 280 263 273 291 295 290 288 300 307 280 268 270 272 282 274 264 256 255 256 246 241 241 243
69 68 73 70 60 72 92 103 101 98 20 281 298 291 280 284 290 288 327 346 307 337 360 342 307 310 298 252 268 280 269 258 256 267 267 266 266 265 267 271 265 251 248